Regional Weather Roundup
Issued by NWS

Home | Current Version | Previous Version | Text Only | Print | Product List | Glossary Off
Versions: 1 2 3 4 5 6 7 8 9 10 11 12 13 14 15 16 17 18 19 20 21 22 23 24 25 26 27 28 29 30 31 32 33 34 35 36 37 38 39 40 41 42 43 44 45 46 47 48 49 50

250
ASUS45 KPSR 211510
RWRAZ

ARIZONA HOURLY REGIONAL WEATHER ROUNDUP
NATIONAL WEATHER SERVICE PHOENIX AZ
800 AM MST MON AUG 21 2017

NOTE: FAIR INDICATES FEW OR NO CLOUDS BELOW 12,000 FEET WITH NO
SIGNIFICANT WEATHER AND/OR OBSTRUCTIONS TO VISIBILITY.

AZZ001>003-036-211600-
NORTHWEST ARIZONA

CITY           SKY/WX    TMP DP  RH WIND       PRES   REMARKS
BULLHEAD CITY  CLOUDY    82  66  57 NE7       29.92R
KINGMAN        CLOUDY    74  55  51 W7        30.13R
$$

AZZ004>008-015-016-018-211600-
NORTH CENTRAL ARIZONA

CITY           SKY/WX    TMP DP  RH WIND       PRES   REMARKS
GRAND CANYON   PTSUNNY   60  54  80 CALM      30.31R
WILLIAMS       PTSUNNY   59  55  88 SE7       30.32R
PRESCOTT       MOSUNNY   71  52  50 NE3       30.21R
FLAGSTAFF      CLOUDY    60  52  74 CALM      30.33R
PAYSON           N/A     70  52  52 CALM      30.22R
PAGE           MOSUNNY   79  45  29 VRB3      30.13R
$$

AZZ009>014-017-211600-
NORTHEAST ARIZONA

CITY           SKY/WX    TMP DP  RH WIND       PRES   REMARKS
WINSLOW        SUNNY     71  53  52 E10       30.20R
SAINT JOHNS    SUNNY     65  56  72 CALM      30.24R
WINDOW ROCK    SUNNY     62  53  72 CALM      30.31S
SHOW LOW       SUNNY     66  52  59 S9        30.29R
$$

AZZ540-542>544-546-548-211600-
GREATER PHOENIX AREA

CITY           SKY/WX    TMP DP  RH WIND       PRES   REMARKS
PHOENIX        MOSUNNY   88  57  34 E8        29.92R
BUCKEYE        SUNNY     86  54  32 CALM      29.92R
GLENDALE       MOSUNNY   90  59  35 NE7       29.93R
LUKE AFB       MOSUNNY   88  59  36 E5        29.91R
DEER VALLEY    MOSUNNY   88  57  34 CALM      29.94R
SCOTTSDALE     MOSUNNY   86  57  37 S5        29.96R
MESA-FALCON    MOSUNNY   88  57  35 CALM      29.95R
MESA-GATEWAY   MOSUNNY   82  57  42 SE5       29.96R
CHANDLER       MOSUNNY   86  59  39 E7        29.93R
$$

AZZ539-553-211600-
SOUTHWEST MARICOPA COUNTY AND PINAL COUNTY

CITY           SKY/WX    TMP DP  RH WIND       PRES   REMARKS
CASA GRANDE    SUNNY     86  59  39 E6        29.96R
GILA BEND      MOSUNNY   90  46  21 SE6       29.89
$$

AZZ503-504-507>509-211600-
SOUTHEAST ARIZONA

CITY           SKY/WX    TMP DP  RH WIND       PRES   REMARKS
TUCSON         SUNNY     79  59  50 SE5       30.05R
DAVIS-MONTHAN  SUNNY     81  57  43 SE9       30.04R
RYAN FIELD     SUNNY     79  57  47 CALM      30.04R
NOGALES        SUNNY     73  60  63 CALM      30.13R
SIERRA VISTA   SUNNY     76  53  44 CALM      30.19R
DOUGLAS        SUNNY     71  61  70 S5        30.16R
SAFFORD        SUNNY     75  58  55 CALM      30.08R
$$

AZZ532-211600-
SOUTHWEST ARIZONA

CITY           SKY/WX    TMP DP  RH WIND       PRES   REMARKS
YUMA           PTSUNNY   85  67  54 S5        29.86R
$$

CAZ041-043-047-048-061-525>527-560>570-211600-
SOUTHERN CALIFORNIA

CITY           SKY/WX    TMP DP  RH WIND       PRES   REMARKS
DOWNTOWN L.A.  CLOUDY    71  61  70 CALM      29.99R
L.A. AIRPORT   CLOUDY    70  60  70 E5        30.00R
SAN DIEGO      PTSUNNY   71  60  68 N5        30.00R
BURBANK        CLOUDY    67  58  72 N5        30.01R HAZE
ONTARIO        CLOUDY    66  60  81 S5        30.01R HAZE
RIVERSIDE      CLOUDY    66  62  87 CALM      30.02R FOG
PALM SPRINGS   SUNNY     82  57  42 CALM      29.89R
EL CENTRO NAS  MOSUNNY   84  48  28 CALM      29.86R
IMPERIAL       SUNNY     84  57  39 CALM      29.84R
BLYTHE         MOSUNNY   88  55  32 S6        29.86R
NEEDLES        PTSUNNY   89  62  40 SE8       29.93R
$$

NVZ020-UTZ003-211600-
SOUTHERN NEVADA-UTAH

CITY           SKY/WX    TMP DP  RH WIND       PRES   REMARKS
LAS VEGAS      TSTM      80  61  52 SW6       30.03R
SALT LAKE CITY MOSUNNY   78  44  29 S6        30.10R
$$

NMZ009-TXZ055-211600-
NEW MEXICO-WEST TEXAS

CITY           SKY/WX    TMP DP  RH WIND       PRES   REMARKS
ALBUQUERQUE    CLOUDY    62  60  93 SE5       30.24S
EL PASO        MOSUNNY   71  64  78 S6        30.16S
$$


........................KEY........................
SKY/WX - SKY CONDITION/WEATHER
TMP    - TEMPERATURE IN FAHRENHEIT
DP     - DEW POINT IN FAHRENHEIT
RH     - RELATIVE HUMIDITY IN PERCENT
WIND   - DIRECTION AND SPEED IN MILES PER HOUR (MPH)
VRB    - VARIABLE WIND DIRECTION
PRES   - MEAN SEA LEVEL PRESSURE IN INCHES OF MERCURY
         F - FALLING PRESSURE   R - RISING PRESSURE
         S - STEADY PRESSURE
VSB    - VISIBILITY IN MILES
HX     - HEAT INDEX IN FAHRENHEIT
WCI    - WIND CHILL INDEX IN FAHRENHEIT
TC     - TEMPERATURE IN CELSIUS WHICH IS ALSO KNOWN AS
         TEMPERATURE IN CENTIGRADE
AFB    - AIR FORCE BASE
         LUKE AFB IS LUKE AIR FORCE BASE
         DAVIS-MONTHAN IS DAVIS-MONTHAN AIR FORCE BASE
NAS    - NAVAL AIR STATION
         EL CENTRO NAS IS EL CENTRO NAVAL AIR STATION
N/A    - NOT AVAILABLE





USA.gov is the U.S. government's official web portal to all federal, state and local government web resources and services.